This demonstration page uses our WeatherBlox Daily Observations layout. Learn more.

Hourly Observations for February 8, 2020

Temp ( °F °C ) Dew Point ( °F °C ) Humidity (%) Winds ( mph kmh ) Pressure ( in mb ) Visibility ( mi km ) Precip ( " mm )
12:15 am 00:15 Clear 23 -5 19 -7.2 85 85 SW 3 6 30.19 1022 10 16.0934 0 0
12:35 am 00:35 Mostly Cloudy 23 -5.1 19 -7.2 85 85 SSW 3 6 30.19 1023 10 16.0934 0 0
12:55 am 00:55 Mostly Cloudy 22 -5.5 19 -7.5 86 86 SW 3 6 30.2 1023 10 16.0934 0 0
1:15 am 01:15 Mostly Cloudy 23 -5.2 19 -7 87 87 SW 3 6 30.2 1023 10 16.0934 0 0
1:35 am 01:35 Partly Cloudy 24 -4.7 20 -6.6 87 87 Calm 30.18 1022 10 16.0934 0 0
1:55 am 01:55 Mostly Cloudy 23 -4.8 20 -6.5 88 88 SW 3 6 30.18 1022 10 16.0934 0 0
2:15 am 02:15 Partly Cloudy 23 -5 20 -6.5 89 89 SW 6 9 30.18 1022 10 16.0934 0 0
2:35 am 02:35 Clear 23 -4.8 21 -6.3 89 89 SW 7 11 30.19 1022 10 16.0934 0 0
2:55 am 02:55 Clear 24 -4.7 21 -6.3 89 89 SW 7 11 30.18 1022 10 16.0934 0 0
3:15 am 03:15 Partly Cloudy 24 -4.5 21 -6.2 88 88 SW 7 11 30.19 1022 10 16.0934 0 0
3:35 am 03:35 Partly Cloudy 24 -4.7 20 -6.5 87 87 SW 7 11 30.18 1022 10 16.0934 0 0
3:55 am 03:55 Clear 23 -5.1 20 -6.7 89 89 SW 6 9 30.18 1022 10 16.0934 0 0
4:15 am 04:15 Clear 22 -5.5 19 -7 89 89 SW 3 6 30.18 1022 10 16.0934 0 0
4:35 am 04:35 Clear 22 -5.4 20 -6.8 90 90 SSW 5 7 30.17 1022 10 16.0934 0 0
4:55 am 04:55 Clear 22 -5.7 19 -7.2 89 89 Calm 30.17 1022 10 16.0934 0 0
5:15 am 05:15 Clear 20 -6.7 18 -8 91 91 S 3 6 30.19 1022 10 16.0934 0 0
5:35 am 05:35 Clear 22 -5.6 20 -6.8 91 91 SSW 5 7 30.19 1022 10 16.0934 0 0
5:55 am 05:55 Partly Cloudy 22 -5.3 20 -6.7 90 90 SSW 6 9 30.18 1022 10 16.0934 0 0
6:15 am 06:15 Mostly Cloudy 23 -5.1 20 -6.5 90 90 S 5 7 30.16 1021 10 16.0934 0 0
6:35 am 06:35 Cloudy 23 -5.1 20 -6.5 90 90 S 3 6 30.17 1022 10 16.0934 0 0
6:55 am 06:55 Cloudy 24 -4.5 21 -6 89 89 SSE 3 6 30.16 1021 10 16.0934 0 0
7:15 am 07:15 Cloudy 24 -4.5 22 -5.8 91 91 SSE 3 6 30.16 1021 10 16.0934 0 0
7:35 am 07:35 Cloudy 24 -4.2 22 -5.6 90 90 S 5 7 30.18 1022 10 16.0934 0 0
7:55 am 07:55 Cloudy 25 -4 22 -5.3 91 91 SSE 5 7 30.15 1021 10 16.0934 0 0
8:15 am 08:15 Mostly Cloudy 25 -3.8 23 -5 91 91 SSE 6 9 30.15 1021 10 16.0934 0 0
8:35 am 08:35 Cloudy 27 -2.8 25 -3.9 92 92 SSE 7 11 30.14 1021 10 16.0934 0 0
8:55 am 08:55 Cloudy 28 -2.2 26 -3.4 92 92 S 8 13 30.14 1021 10 16.0934 0 0
9:15 am 09:15 Mostly Cloudy 29 -1.9 27 -3 92 92 S 10 17 30.13 1020 10 16.0934 0 0
9:35 am 09:35 Partly Cloudy 30 -0.9 28 -2.4 90 90 S 12 19 30.11 1020 10 16.0934 0 0
9:55 am 09:55 Partly Cloudy 32 -0.2 28 -2 88 88 S 14 22 30.11 1020 10 16.0934 0 0
10:15 am 10:15 Sunny 33 0.3 29 -1.6 87 87 S 15 24 30.09 1019 10 16.0934 0 0
10:35 am 10:35 Sunny 34 1.1 29 -1.5 83 83 S 14 22 30.08 1019 10 16.0934 0 0
10:55 am 10:55 Sunny 36 2 29 -1.6 77 77 SSE 10 17 30.07 1018 10 16.0934 0 0
11:15 am 11:15 Sunny 37 2.8 29 -1.7 73 73 S 13 20 30.05 1018 10 16.0934 0 0
11:35 am 11:35 Sunny 39 3.7 29 -1.7 68 68 SSE 13 20 30.02 1017 10 16.0934 0 0
11:55 am 11:55 Sunny 40 4.2 29 -1.9 65 65 SSE 12 19 30.02 1016 10 16.0934 0 0
12:15 pm 12:15 Sunny 41 5.1 29 -1.8 61 61 SSE 12 19 29.99 1015 10 16.0934 0 0
12:35 pm 12:35 Sunny 42 5.4 28 -2.3 58 58 SSE 14 22 29.96 1015 10 16.0934 0 0
12:55 pm 12:55 Sunny 43 6 28 -2.1 56 56 S 16 26 29.94 1014 10 16.0934 0 0
1:15 pm 13:15 Sunny 44 6.6 29 -1.7 56 56 SSE 14 22 29.92 1013 10 16.0934 0 0
1:35 pm 13:35 Sunny 45 7 29 -1.6 55 55 SSE 16 26 29.9 1013 10 16.0934 0 0
1:55 pm 13:55 Sunny 45 7.4 29 -1.4 54 54 S 16 26 29.89 1012 10 16.0934 0 0
2:15 pm 14:15 Sunny 46 7.6 29 -1.4 53 53 S 17 28 29.86 1011 10 16.0934 0 0
2:35 pm 14:35 Sunny 47 8.2 30 -1.2 52 52 S 16 26 29.84 1010 10 16.0934 0 0
2:55 pm 14:55 Sunny 48 8.7 30 -1.1 51 51 S 17 28 29.81 1010 10 16.0934 0 0
3:15 pm 15:15 Sunny 49 9.3 31 -0.8 50 50 S 17 28 29.8 1009 10 16.0934 0 0
3:35 pm 15:35 Sunny 50 9.8 30 -0.9 48 48 S 20 31 29.77 1008 10 16.0934 0 0
3:55 pm 15:55 Sunny 51 10.3 31 -0.8 46 46 S 20 31 29.76 1008 10 16.0934 0 0
4:15 pm 16:15 Sunny 51 10.8 30 -0.9 45 45 SSE 17 28 29.75 1007 10 16.0934 0 0
4:35 pm 16:35 Sunny 52 11.2 30 -1.3 42 42 S 20 31 29.74 1007 10 16.0934 0 0
4:55 pm 16:55 Sunny 51 10.8 29 -1.4 43 43 S 16 26 29.74 1007 10 16.0934 0 0
5:15 pm 17:15 Sunny 51 10.3 30 -1.1 45 45 S 17 28 29.73 1007 10 16.0934 0 0
5:35 pm 17:35 Sunny 50 9.8 30 -1.1 47 47 SSE 15 24 29.73 1007 10 16.0934 0 0
5:55 pm 17:55 Sunny 47 8.6 30 -1 51 51 SSE 12 19 29.75 1007 10 16.0934 0 0
6:15 pm 18:15 Clear 44 6.9 30 -1.1 57 57 SSE 8 13 29.77 1008 10 16.0934 0 0
6:35 pm 18:35 Clear 42 5.5 29 -1.4 61 61 SE 8 13 29.78 1009 10 16.0934 0 0
6:55 pm 18:55 Clear 38 3.6 29 -1.7 69 69 SE 12 19 29.8 1009 10 16.0934 0 0
7:15 pm 19:15 Clear 37 2.8 29 -1.9 72 72 SSE 10 17 29.81 1009 10 16.0934 0 0
7:35 pm 19:35 Clear 39 3.8 30 -1.1 71 71 SSE 9 15 29.8 1009 10 16.0934 0 0
7:55 pm 19:55 Clear 40 4.6 31 -0.6 69 69 SSE 9 15 29.79 1009 10 16.0934 0 0
8:15 pm 20:15 Clear 40 4.3 31 -0.8 70 70 SSE 13 20 29.79 1009 10 16.0934 0 0
8:35 pm 20:35 Clear 39 3.8 30 -1 71 71 SSE 10 17 29.8 1009 10 16.0934 0 0
8:55 pm 20:55 Clear 39 4 30 -1 70 70 SSE 15 24 29.8 1009 10 16.0934 0 0
9:15 pm 21:15 Clear 40 4.7 31 -0.7 68 68 SSE 15 24 29.78 1008 10 16.0934 0 0
9:35 pm 21:35 Clear 41 5 31 -0.8 66 66 SSE 16 26 29.78 1008 10 16.0934 0 0
9:55 pm 21:55 Clear 40 4.4 30 -1 68 68 SSE 12 19 29.78 1009 10 16.0934 0 0
10:15 pm 22:15 Clear 38 3.4 30 -1.1 73 73 SSE 12 19 29.8 1009 10 16.0934 0 0
10:35 pm 22:35 Clear 37 3 30 -1 75 75 SSE 12 19 29.81 1009 10 16.0934 0 0
10:55 pm 22:55 Clear 38 3.1 30 -1 75 75 SSE 10 17 29.81 1009 10 16.0934 0 0
11:15 pm 23:15 Clear 37 2.8 30 -0.9 77 77 SSE 9 15 29.8 1009 10 16.0934 0 0
11:35 pm 23:35 Clear 37 2.6 30 -1 77 77 SSE 9 15 29.81 1009 10 16.0934 0 0
11:55 pm 23:55 Clear 37 2.5 31 -0.8 79 79 SSE 10 17 29.81 1009 10 16.0934 0 0

Powered by AerisWeather